Location: Fossil View Observatory
(30.3980°N, 99.3522°W)
Time: 15:51:50
(UTC-06:00)

N. Korean satellite - Visible Passes

Search period start: 13 November 2019 00:00
Search period end: 23 November 2019 00:00
Orbit: 456 x 506 km, 97.2° (Epoch: 12 November)

Date Brightness Start Highest point End Pass type
(mag) Time Alt. Az. Time Alt. Az. Time Alt. Az.
13 Nov 8.7 05:56:16 10° NNE 05:59:36 32° E 06:02:54 10° SSE visible
14 Nov 10.0 05:32:03 10° ENE 05:34:08 14° E 05:36:12 10° SE visible
15 Nov 9.9 18:42:47 10° SW 18:45:01 16° W 18:47:19 10° NW visible
16 Nov 7.3 06:13:13 10° NNE 06:16:53 59° E 06:20:28 10° S visible
16 Nov 8.4 18:16:15 10° SSW 18:19:33 36° W 18:22:56 10° NNW visible
17 Nov 9.2 05:48:23 10° NE 05:51:27 25° E 05:54:28 10° SSE visible
18 Nov 10.2 05:24:52 10° ENE 05:25:56 11° E 05:27:00 10° ESE visible
19 Nov 6.5 06:30:24 10° N 06:34:04 74° WNW 06:37:41 10° SSW visible
19 Nov 9.6 18:34:04 10° SW 18:36:48 21° W 18:39:37 10° NW visible
20 Nov 7.9 06:05:11 10° NNE 06:08:42 44° E 06:12:09 10° S visible
20 Nov 7.8 18:07:52 10° S 18:11:21 48° W 18:14:55 10° NNW visible
21 Nov 9.6 05:40:34 10° NE 05:43:13 19° E 05:45:52 10° SE visible
22 Nov 10.1 18:52:38 10° WSW 18:54:06 12° W 18:55:33 10° WNW visible
